Location: Baia Mare
(47.6567°N, 23.5850°E)
Time: 12:38:22
(UTC+02:00)

ISS - Pass Details

Date: 24 January 2019
Orbit: 404 x 407 km, 51.6° (Epoch: 16 January)

Event Time Altitude Azimuth Distance (km) Brightness Sun altitude
Rises 18:42:42 0° 220° (SW) 2,313 0.9 -14.9°
Reaches altitude 10° 18:44:52 10° 210° (SSW) 1,458 -0.4 -15.2°
Maximum altitude 18:47:51 33° 144° (SE) 701 -2.9 -15.7°
Enters shadow 18:48:26 31° 120° (ESE) 746 -2.9 -15.8°
